Weather History for KHSV - January, 2012

Change the Weather History Date:

Saturday, January 28, 2012

  Actual Average Record
Temperature  
Mean Temperature 44 °F 42 °F  
Max Temperature 55 °F 52 °F 73 °F (1934)
Min Temperature 32 °F 32 °F -7 °F (1940)
Degree Days  
Heating Degree Days 21 23  
Month to date heating degree days 495 665  
Since 1 July heating degree days 1601 1846  
Cooling Degree Days 0 0  
Month to date cooling degree days 0 0  
Year to date cooling degree days 0 0  
Moisture  
Dew Point 28 °F    
Average Humidity 60    
Maximum Humidity 92    
Minimum Humidity 28    
Precipitation  
Precipitation 0.00 in 0.16 in 1.27 in (1974)
Month to date precipitation 7.79 4.42  
Year to date precipitation 7.79 4.42  
Snow  
Snow 0.00 in - - ()
Month to date snowfall T  
Since 1 July snowfall T  
Snow Depth 0.00 in    
Sea Level Pressure  
Sea Level Pressure 30.23 in    
Wind  
Wind Speed 8 mph (North)    
Max Wind Speed 20 mph    
Max Gust Speed 24 mph    
Visibility 10 miles    
Events Fog    
T = Trace of Precipitation, MM = Missing Value Source: NWS Daily Summary

Daily Weather History Graph

Daily Weather History Graph

Search for Another Location

Airport or City:

Trip Planner

Search our weather history database for the weather conditions in past years. The results will help you decide how hot, cold, wet, or windy it might be!

Date:

Astronomy

Jan. 28, 2012 Rise Set
Actual Time 6:48 AM CST 5:12 PM CST
Civil Twilight 6:21 AM CST 5:38 PM CST
Nautical Twilight 5:51 AM CST 6:09 PM CST
Astronomical Twilight 5:21 AM CST 6:38 PM CST
Moon 9:26 AM CST (1/28) 10:42 PM CST (1/28)
Length of Visible Light 11h 17m
Length of Day
10h 23m
Waxing Crescent, 28% of the Moon is Illuminated
Jan 28
Waxing Crescent
Jan 30
First Quarter
Feb 7
Full
Feb 14
Last Quarter
Feb 21
New

Hourly Weather History & Observations

Time (CST) Temp. Windchill Dew Point Humidity Pressure Visibility Wind Dir Wind Speed Gust Speed Precip Events Conditions
12:53 AM 39.0 °F 36.8 °F 37.0 °F 93% 30.06 in 10.0 mi SE 3.5 mph - N/A   Clear
1:53 AM 37.9 °F - 36.0 °F 93% 30.09 in 6.0 mi Calm Calm - N/A Fog Patches of Fog
2:53 AM 37.0 °F 33.3 °F 35.1 °F 93% 30.09 in 4.0 mi SE 4.6 mph - N/A Fog Patches of Fog
3:53 AM 36.0 °F 32.1 °F 34.0 °F 93% 30.09 in 8.0 mi SE 4.6 mph - N/A   Clear
4:53 AM 36.0 °F 32.1 °F 34.0 °F 93% 30.10 in 10.0 mi ESE 4.6 mph - N/A   Clear
5:53 AM 37.0 °F 32.4 °F 34.0 °F 89% 30.12 in 10.0 mi ESE 5.8 mph - N/A   Mostly Cloudy
6:53 AM 39.9 °F - 37.0 °F 89% 30.13 in 10.0 mi Calm Calm - N/A   Mostly Cloudy
7:53 AM 45.0 °F 42.6 °F 39.0 °F 80% 30.16 in 10.0 mi WSW 4.6 mph - N/A   Mostly Cloudy
8:53 AM 48.0 °F - 39.9 °F 74% 30.19 in 10.0 mi NW 11.5 mph - N/A   Mostly Cloudy
9:53 AM 50.0 °F - 39.0 °F 66% 30.24 in 10.0 mi NNW 16.1 mph - N/A   Scattered Clouds
10:53 AM 52.0 °F - 37.9 °F 59% 30.25 in 10.0 mi NNW 11.5 mph - N/A   Scattered Clouds
11:53 AM 53.1 °F - 30.0 °F 41% 30.25 in 10.0 mi North 13.8 mph 20.7 mph N/A   Scattered Clouds
12:53 PM 54.0 °F - 25.0 °F 33% 30.25 in 10.0 mi NNW 17.3 mph 24.2 mph N/A   Scattered Clouds
1:53 PM 54.0 °F - 23.0 °F 30% 30.25 in 10.0 mi North 15.0 mph - N/A   Scattered Clouds
2:53 PM 53.1 °F - 24.1 °F 32% 30.27 in 10.0 mi NNW 15.0 mph - N/A   Scattered Clouds
3:53 PM 51.8 °F - 19.4 °F 28% 30.29 in 10.0 mi North 12.7 mph - N/A   Partly Cloudy
4:53 PM 48.9 °F - 19.9 °F 32% 30.31 in 10.0 mi NNW 10.4 mph - N/A   Partly Cloudy
5:53 PM 46.0 °F 41.4 °F 18.0 °F 33% 30.33 in 10.0 mi North 9.2 mph - N/A   Partly Cloudy
6:53 PM 43.0 °F 40.3 °F 19.0 °F 38% 30.35 in 10.0 mi NNW 4.6 mph - N/A   Partly Cloudy
7:53 PM 39.0 °F 35.7 °F 21.0 °F 49% 30.36 in 10.0 mi WNW 4.6 mph - N/A   Clear
8:53 PM 39.9 °F 36.7 °F 18.0 °F 41% 30.35 in 10.0 mi North 4.6 mph - N/A   Clear
9:53 PM 36.0 °F 32.1 °F 19.9 °F 52% 30.36 in 10.0 mi NNW 4.6 mph - N/A   Clear
10:53 PM 34.0 °F 31.0 °F 21.9 °F 61% 30.37 in 10.0 mi North 3.5 mph - N/A   Clear
11:53 PM 32.0 °F - 21.0 °F 64% 30.38 in 10.0 mi Calm Calm - N/A   Clear